This demonstration page uses our WeatherBlox Daily Observations layout. Learn more.

Hourly Observations for May 27, 2018

Temp ( °F °C ) Dew Point ( °F °C ) Humidity (%) Winds ( mph kmh ) Pressure ( in mb ) Visibility ( mi km ) Precip ( " mm )
12:54 am 00:54 Clear 76 24.4 62 16.7 62 62 Calm 29.74 1007 10 16.0934 0 0
1:54 am 01:54 Clear 76 24.4 63 17.2 64 64 SSE 3 6 29.75 1007 10 16.0934 0 0
2:54 am 02:54 Clear 73 22.8 62 16.7 69 69 SSE 3 6 29.75 1007 10 16.0934 0 0
3:54 am 03:54 Clear 70 21.1 61 16.1 73 73 S 5 7 29.76 1008 10 16.0934 0 0
4:54 am 04:54 Clear 68 20 61 16.1 78 78 SSE 5 7 29.77 1008 10 16.0934 0 0
5:54 am 05:54 Clear 68 20 61 16.1 78 78 S 5 7 29.79 1009 10 16.0934 0 0
6:54 am 06:54 Sunny 68 20 61 16.1 78 78 SSE 3 6 29.8 1009 10 16.0934 0 0
7:54 am 07:54 Sunny 76 24.4 65 18.3 69 69 SW 5 7 29.81 1010 10 16.0934 0 0
8:54 am 08:54 Sunny 82 27.8 65 18.3 56 56 SW 10 17 29.82 1010 10 16.0934 0 0
9:54 am 09:54 Sunny 87 30.6 63 17.2 45 45 SW 14 22 29.82 1010 10 16.0934 0 0
10:54 am 10:54 Sunny 90 32.2 60 15.6 37 37 SW 14 22 29.82 1010 10 16.0934 0 0
11:54 am 11:54 Sunny 93 33.9 60 15.6 33 33 SW 15 24 29.82 1010 10 16.0934 0 0
12:54 pm 12:54 Sunny 96 35.6 57 13.9 27 27 SW 14 22 29.82 1010 10 16.0934 0 0
1:54 pm 13:54 Sunny 95 35 62 16.7 34 34 SSW 12 19 29.82 1010 10 16.0934 0 0
2:54 pm 14:54 Sunny 96 35.6 58 14.4 28 28 SSW 10 17 29.81 1009 10 16.0934 0 0
3:54 pm 15:54 Sunny 95 35 59 15 30 30 S 13 20 29.79 1009 10 16.0934 0 0
4:54 pm 16:54 Sunny 95 35 54 12.2 25 25 SSW 14 22 29.79 1009 10 16.0934 0 0
5:54 pm 17:54 Sunny 94 34.4 57 13.9 29 29 SSW 15 24 29.78 1009 10 16.0934 0 0
6:54 pm 18:54 Sunny 92 33.3 61 16.1 36 36 SSE 9 15 29.78 1008 10 16.0934 0 0
7:54 pm 19:54 Sunny 90 32.2 60 15.6 37 37 SSE 9 15 29.77 1008 10 16.0934 0 0
8:54 pm 20:54 Clear 82 27.8 59 15 46 46 S 7 11 29.79 1009 10 16.0934 0 0
9:54 pm 21:54 Clear 81 27.2 59 15 47 47 S 7 11 29.81 1010 10 16.0934 0 0
10:54 pm 22:54 Clear 82 27.8 60 15.6 47 47 SSW 10 17 29.85 1011 10 16.0934 0 0
11:54 pm 23:54 Clear 81 27.2 61 16.1 51 51 SSW 8 13 29.86 1011 10 16.0934 0 0

Powered by AerisWeather